[[{"header":{"parameterUnit":"m.s-1","parameterCategory":1,"la1":30.2992,"la2":30.254,"lo1":-89.0895,"lo2":-89.0443,"dy":0.0025,"dx":0.0025,"nx":19,"ny":19,"refTime":"2026-04-08T09:00:00:Z","depth":0,"parameterNumber":2,"parameterNumberName":"U-component_of_WINDS"},"data":[0,0,0,-7.9413,-7.9418,-7.9634,-7.9635,-7.9964,-7.9967,0,0,0,0,0,0,0,0,0,0,0,-7.9382,-7.9385,-7.9413,-7.9419,-7.9634,-7.9635,-7.9963,-7.9967,0,0,0,0,0,0,0,0,0,0,0,-7.9381,-7.9385,-7.9389,-7.942,-7.9634,-7.9635,-7.9962,-7.9781,0,0,0,0,0,0,0,0,0,0,-7.9562,-7.9566,-7.9384,-7.9389,-7.9421,-7.9634,-7.9635,-7.9771,-7.9792,-7.9889,0,-7.9985,0,-7.9982,-7.9993,-7.9994,0,0,0,-7.9394,-7.9549,-7.9577,-7.939,-7.9424,-7.9634,-7.953,-7.9782,-7.9806,-7.9917,-7.9989,-8.0,-7.9987,-7.9995,-7.9997,-8.0639,-8.0643,0,0,-7.9382,-7.9439,-7.9561,-7.9594,-7.9565,-7.9524,-7.9537,-7.9796,-7.9878,-7.999,-8.0006,-7.9993,-7.9998,-8.0001,-8.0635,-8.064,0,0,0,-7.9365,-7.9432,-7.9452,-7.9582,-7.9617,-7.953,-7.9546,-7.9866,-7.9868,-8.001,-7.9997,-8.0,-8.0005,-8.0631,-8.0637,-8.0897,0,0,0,-7.9356,-7.9421,-7.9448,-7.9485,-7.9613,-7.9745,-7.9612,-7.985,-7.9877,-7.9995,-8.0,-8.0008,-8.0626,-8.0634,-8.088,-8.1011,0,0,0,-7.9357,-7.9421,-7.9463,-7.9488,-7.9582,-7.9739,-7.9755,-7.9854,-7.9871,-7.9994,-8.0009,-8.0623,-8.0633,-8.0865,-8.0986,-8.1196,0,0,0,-7.9373,-7.9692,-7.9468,-7.9819,-7.9581,-7.9898,-7.9752,-7.9986,-8.0123,-8.0002,-8.0627,-8.0637,-8.086,-8.097,-8.1181,-8.1384,-8.1474,0,0,-7.9807,-7.9747,-7.9948,-7.9754,-8.0126,-7.9861,-8.027,-8.0342,-8.0302,-8.0529,-8.0544,-8.0886,-8.0984,-8.1193,-8.1958,-8.203,0,0,0,-8.0105,-8.025,-8.0336,-8.0469,-8.0532,-8.0595,-8.0599,-8.0625,-8.0814,-8.0431,-8.1017,-8.1074,-8.1194,-8.1288,-8.135,-8.1449,-8.0683,-8.0682,-8.0681,-8.08,-8.0731,-8.106,-8.1017,-8.1148,-8.1147,-8.1246,-8.1281,-8.1174,-8.1313,-8.1381,-8.1853,-8.1966,-8.2012,-8.2116,-8.1482,-8.1483,-8.1484,-8.1484,-8.1429,-8.1624,-8.1473,-8.1737,-8.1662,-8.1883,-8.1894,-8.181,-8.2005,-8.1797,-8.1899,-8.1679,-8.2093,-8.218,-8.1503,-8.15,-8.1498,-8.1496,-8.1495,-8.1877,-8.1959,-8.1985,-8.2168,-8.2317,-8.2261,-8.2455,-8.2379,-8.2309,-8.2411,-8.2473,-8.2468,-8.2454,-8.2446,-8.2447,-8.2449,-8.245,-8.2451,-8.2452,-8.2332,-8.2353,-8.2525,-8.2617,-8.2691,-8.278,-8.2781,-8.2851,-8.2911,-8.284,-8.284,-8.2719,-8.2146,-8.2004,-8.2478,-8.2473,-8.247,-8.2468,-8.2466,-8.2996,-8.2833,-8.31,-8.3175,-8.3275,-8.3428,-8.3328,-8.3478,-8.3526,-8.3624,-8.348,-8.3068,-8.3001,-8.2952,-8.2834,-8.3494,-8.3494,-8.3494,-8.3494,-8.3375,-8.3332,-8.3587,-8.3711,-8.3823,-8.376,-8.4062,-8.4066,-8.4044,-8.4068,-8.3961,-8.3798,-8.3751,-8.3711,-8.3646,-8.3534,-8.4358,-8.4359,-8.4359,-8.3779,-8.3744,-8.4016,-8.3992,-8.4064,-8.4128,-8.4409,-8.4557,-8.4498,-8.4393,-8.4086,-8.405,-8.3784,-8.3702,-8.3591,-8.3491,-8.3284,0,0]},{"header":{"parameterUnit":"m.s-1","parameterCategory":1,"la1":30.2992,"la2":30.254,"lo1":-89.0895,"lo2":-89.0443,"dy":0.0025,"dx":0.0025,"nx":19,"ny":19,"refTime":"2026-04-08T09:00:00:Z","depth":0,"parameterNumber":3,"parameterNumberName":"V-component_of_WINDS"},"data":[0,0,0,-0.9806,-0.9806,-0.9825,-0.9825,-0.9845,-0.9846,0,0,0,0,0,0,0,0,0,0,0,-0.9799,-0.9799,-0.9806,-0.9806,-0.9825,-0.9825,-0.9845,-0.9846,0,0,0,0,0,0,0,0,0,0,0,-0.9799,-0.9799,-0.9799,-0.9806,-0.9825,-0.9825,-0.9845,-0.9832,0,0,0,0,0,0,0,0,0,0,-0.9814,-0.9807,-0.9799,-0.9799,-0.9806,-0.9825,-0.9825,-0.9832,-0.9833,-0.9836,0,-0.9838,0,-0.9842,-0.9847,-0.9847,0,0,0,-0.9807,-0.9806,-0.9812,-0.9799,-0.9806,-0.9825,-0.9817,-0.9832,-0.9834,-0.9837,-0.9839,-0.984,-0.9843,-0.9847,-0.9847,-0.986,-0.986,0,0,-0.9806,-0.9801,-0.9811,-0.9813,-0.9811,-0.9816,-0.9817,-0.9833,-0.9834,-0.9839,-0.984,-0.9843,-0.9847,-0.9847,-0.986,-0.986,0,0,0,-0.9802,-0.9801,-0.9807,-0.9812,-0.9816,-0.9816,-0.9818,-0.9834,-0.9836,-0.984,-0.9843,-0.9847,-0.9847,-0.986,-0.986,-0.9857,0,0,0,-0.9802,-0.9799,-0.9806,-0.9804,-0.9816,-0.9825,-0.9818,-0.9835,-0.9837,-0.9843,-0.9847,-0.9848,-0.986,-0.986,-0.9857,-0.9856,0,0,0,-0.9798,-0.9798,-0.9801,-0.9803,-0.9811,-0.9825,-0.9828,-0.9835,-0.9838,-0.9847,-0.9848,-0.986,-0.986,-0.9857,-0.9856,-0.9858,0,0,0,-0.9793,-0.9798,-0.9801,-0.9807,-0.9811,-0.9823,-0.9828,-0.9838,-0.9844,-0.9847,-0.986,-0.986,-0.9857,-0.9857,-0.9858,-0.9858,-0.9858,0,0,-0.9797,-0.9799,-0.9803,-0.9806,-0.9816,-0.9821,-0.983,-0.9841,-0.9845,-0.9855,-0.9855,-0.9857,-0.9856,-0.9858,-0.9859,-0.9859,0,0,0,-0.9803,-0.9806,-0.981,-0.9816,-0.9824,-0.983,-0.9839,-0.9843,-0.9851,-0.985,-0.9858,-0.9858,-0.9859,-0.9859,-0.9859,-0.986,-0.986,-0.986,-0.986,-0.9804,-0.9809,-0.9815,-0.9822,-0.9828,-0.9837,-0.9842,-0.9848,-0.9852,-0.9854,-0.9856,-0.9857,-0.9857,-0.9857,-0.9858,-0.9857,-0.9857,-0.9857,-0.9857,-0.981,-0.9815,-0.9818,-0.9827,-0.9831,-0.9838,-0.9846,-0.9848,-0.9854,-0.9855,-0.9857,-0.9857,-0.9857,-0.9857,-0.9857,-0.9857,-0.9857,-0.9857,-0.9857,-0.9811,-0.9814,-0.9818,-0.9826,-0.9832,-0.9838,-0.9843,-0.9848,-0.9852,-0.9853,-0.9856,-0.9856,-0.9856,-0.9854,-0.9854,-0.9854,-0.9854,-0.9854,-0.9854,-0.981,-0.9814,-0.9819,-0.9826,-0.983,-0.9835,-0.9842,-0.9846,-0.9851,-0.9853,-0.9854,-0.9856,-0.9856,-0.9855,-0.9854,-0.9854,-0.9854,-0.9854,-0.9854,-0.9814,-0.9814,-0.982,-0.9824,-0.9832,-0.9836,-0.9841,-0.9848,-0.9851,-0.9853,-0.9856,-0.9855,-0.9856,-0.9857,-0.9856,-0.9855,-0.9855,-0.9855,-0.9855,-0.9815,-0.9816,-0.9822,-0.9827,-0.9833,-0.9838,-0.9843,-0.9848,-0.9854,-0.9856,-0.9856,-0.9856,-0.9856,-0.9858,-0.9858,-0.9858,-0.9857,-0.9857,-0.9857,-0.9817,-0.9818,-0.9823,-0.9828,-0.9834,-0.9839,-0.9844,-0.9849,-0.9855,-0.9857,-0.9857,-0.9857,-0.9857,-0.9857,-0.986,-0.986,-0.9859,0,0]}]]